Location: Codford Saint Peter
(51.1597°N, 2.0531°W)
Time: 15:19:39
(UTC+00:00)

ARIANE 5 R/B - Pass Details

Date: 18 September 2020
Orbit: 620 x 657 km, 98.2° (Epoch: 23 October)

Event Time Altitude Azimuth Distance (km) Brightness Sun altitude
Exits shadow 21:15:16 60° 281° (W) 717 3.0 -26.7°
Drops below altitude 10° 21:19:18 10° 340° (NNW) 2,003 6.0 -27.1°
Sets 21:21:31 0° 343° (NNW) 2,912 6.9 -27.4°
